Cleveland, OH

8:00 PM EDT on August 21, 2017 (GMT -0400)
Cleveland-Hopkins International

Weather History for KCLE - September, 2013

Change the Weather History Date:

Friday, September 27, 2013

  Actual Average Record
Temperature  
Mean Temperature 61 °F 60 °F  
Max Temperature 73 °F 69 °F 88 °F (1946)
Min Temperature 48 °F 52 °F 33 °F (1947)
Degree Days  
Heating Degree Days 4 6  
Month to date heating degree days 85 71  
Since 1 July heating degree days 92 83  
Cooling Degree Days 0 1  
Month to date cooling degree days 93 84  
Year to date cooling degree days 855 799  
Growing Degree Days 10 (Base 50)    
Moisture  
Dew Point 50 °F    
Average Humidity 68    
Maximum Humidity 86    
Minimum Humidity 49    
Precipitation  
Precipitation 0.00 in 0.13 in 1.86 in (1982)
Month to date precipitation 1.87 3.44  
Year to date precipitation 30.08 28.98  
Snow  
Snow 0.00 in 0.00 in - ()
Month to date snowfall 0.0 0.0  
Since 1 July snowfall 0.0 0.0  
Since 1 September snowfall 0.0 0.0  
Snow Depth 0.00 in    
Sea Level Pressure  
Sea Level Pressure 30.20 in    
Wind  
Wind Speed 7 mph (NE)    
Max Wind Speed 23 mph    
Max Gust Speed 26 mph    
Visibility 10 miles    
Events      
T = Trace of Precipitation, MM = Missing Value Source: NWS Daily Summary

Daily Weather History Graph

Daily Weather History Graph

Search for Another Location

Airport or City:

Trip Planner

Search our weather history database for the weather conditions in past years. The results will help you decide how hot, cold, wet, or windy it might be!

Date:

Astronomy

Sep. 27, 2013 Rise Set
Actual Time 7:20 AM EDT 7:15 PM EDT
Civil Twilight 6:52 AM EDT 7:43 PM EDT
Nautical Twilight 6:20 AM EDT 8:15 PM EDT
Astronomical Twilight 5:47 AM EDT 8:47 PM EDT
Moon 12:11 AM EDT (9/27) 2:56 PM EDT (9/27)
Length of Visible Light 12h 50m
Length of Day
11h 55m
Last Quarter, 45% of the Moon is Illuminated
Sep 27
Last Quarter
Oct 4
New
Oct 11
First Quarter
Oct 18
Full
Oct 26
Last Quarter

Hourly Weather History & Observations

Time (EDT) Temp. Dew Point Humidity Pressure Visibility Wind Dir Wind Speed Gust Speed Precip Events Conditions
12:51 AM 51.1 °F 46.0 °F 83% 30.15 in 10.0 mi Calm Calm - N/A   Clear
1:51 AM 50.0 °F 45.0 °F 83% 30.16 in 10.0 mi Calm Calm - N/A   Clear
2:51 AM 50.0 °F 46.0 °F 86% 30.16 in 10.0 mi Calm Calm - N/A   Clear
3:51 AM 48.9 °F 45.0 °F 86% 30.16 in 10.0 mi Calm Calm - N/A   Clear
4:51 AM 50.0 °F 46.0 °F 86% 30.17 in 10.0 mi Calm Calm - N/A   Clear
5:51 AM 50.0 °F 46.0 °F 86% 30.19 in 10.0 mi Calm Calm - N/A   Clear
6:51 AM 48.0 °F 44.1 °F 86% 30.20 in 10.0 mi Calm Calm - N/A   Clear
7:51 AM 50.0 °F 46.0 °F 86% 30.22 in 10.0 mi Calm Calm - N/A   Clear
8:51 AM 57.9 °F 51.1 °F 78% 30.23 in 10.0 mi Calm Calm - N/A   Clear
9:51 AM 64.9 °F 52.0 °F 63% 30.24 in 10.0 mi East 5.8 mph - N/A   Clear
10:51 AM 68.0 °F 52.0 °F 56% 30.23 in 10.0 mi ENE 5.8 mph - N/A   Clear
11:51 AM 70.0 °F 50.0 °F 49% 30.23 in 10.0 mi ENE 8.1 mph - N/A   Clear
12:51 PM 71.1 °F 53.1 °F 53% 30.24 in 10.0 mi North 11.5 mph - N/A   Scattered Clouds
1:51 PM 72.0 °F 53.1 °F 51% 30.22 in 10.0 mi North 11.5 mph 19.6 mph N/A   Scattered Clouds
2:51 PM 72.0 °F 53.1 °F 51% 30.21 in 10.0 mi NNE 15.0 mph - N/A   Partly Cloudy
3:51 PM 71.1 °F 52.0 °F 51% 30.20 in 10.0 mi NNE 20.7 mph 24.2 mph N/A   Clear
4:51 PM 69.1 °F 52.0 °F 54% 30.19 in 10.0 mi NNE 18.4 mph - N/A   Clear
5:51 PM 68.0 °F 54.0 °F 61% 30.19 in 10.0 mi NNE 15.0 mph - N/A   Clear
6:51 PM 64.9 °F 55.0 °F 70% 30.20 in 10.0 mi NNE 11.5 mph - N/A   Clear
7:51 PM 64.0 °F 55.9 °F 75% 30.20 in 10.0 mi NE 10.4 mph - N/A   Clear
8:51 PM 63.0 °F 54.0 °F 72% 30.20 in 10.0 mi ENE 9.2 mph - N/A   Clear
9:51 PM 62.1 °F 53.1 °F 72% 30.21 in 10.0 mi East 8.1 mph - N/A   Clear
10:51 PM 61.0 °F 52.0 °F 72% 30.21 in 10.0 mi East 6.9 mph - N/A   Clear
11:51 PM 60.1 °F 51.1 °F 72% 30.20 in 10.0 mi ESE 5.8 mph - N/A   Clear